Location: Hohenfelde
(53.8441°N, 9.6220°E)
Time: 12:43:12
(UTC+00:00)

Meteor 1-5 Rocket - Pass Details

Date: 14 July 2020
Orbit: 789 x 915 km, 81.2° (Epoch: 13 August)

Event Time Altitude Azimuth Distance (km) Brightness Sun altitude
Exits shadow 01:55:52 - 205° (SSW) 2,555 6.0 -8.0°
Reaches altitude 10° 01:56:00 10° 205° (SSW) 2,502 6.0 -8.0°
Maximum altitude 02:01:40 66° 287° (WNW) 969 4.5 -7.5°
Drops below altitude 10° 02:07:34 10° 10° (N) 2,593 7.9 -7.0°
Sets 02:10:06 0° 13° (NNE) 3,549 8.8 -6.8°
